STARLINK-11650, 63312

Orbit data source: Space-Track

STARLINK-11650, 63312 is a payload satellite owned by SpaceX/Seattle (US) in LEO that was launched on Tue, 18 Mar 2025 UTC via an FALCON 9 launch vehicle from the Air Force Eastern Test Range (AFETR). Payload-class satellites include a variety of spacecraft equipped with specific instruments for various scientific and technological missions. These include communications satellites like Starlink; space stations such as the ISS; scientific satellites like the Hubble; Earth observation satellites from companies like Planet Labs, Umbra, and HawkEye 360; GPS; miniature CubeSats for education and research; and military/defense satellites.

Loading next visibility...
Identifier
63312, 2025-057F
Orbit
LEO
Last TLE update
10 hours ago
Origin
Manufacturer
SpaceX/Seattle
Mission
Operational Commercial Communications
Bus & Motor
STARLINK V2M, Unknown motor
Mass
730 kg wet, ~700 kg dry
Launch date (UTC)
2025-03-18 (2 months ago)
Launch vehicle
FALCON 9
Launch site
Air Force Eastern Test Range (AFETR)
Object type
Payload
Rocket body
Debris
Shape & HBR
Box + 2 Pan, 29 m
Radar Cross Section
36.964 m², Large (>1 m²)

Expand to show TLE details & history

TLE from 10 hours ago
0 STARLINK-11650
1 63312U 25057F   25128.79796997 -.00000205  00000-0  18995-5 0  9990
2 63312  42.9981 302.5363 0001946 265.5078  94.5567 15.70831718  9258
Epoch: 2025-05-08T19:09Z
Definitive object data (Epoch: 2025-05-08T19:09:04.605Z)
Latitude
-0.00004°
Longitude
148.40377°
Altitude
356.394 km
Speed
7.697 km/s
True Right ascension
20h 10m 08s
True Declination
0° 00' 00"
Sunlit
Object was in daylight at TLE epoch
Visualization TLE readout
Latitude
-13.88651°
Longitude
-18.82384°
Altitude
358.618 km
Speed
7.695 km/s
Apparent Right ascension
06h 01m 11s
Apparent Declination
-42° 19' 04"
Sunlit
Object is in daylight
Visualization observer readout
Local Sidereal Time
13:18:00
Azimuth
242.708° WSW
Elevation
-38.211°
Doppler factor
1
Orbital elements
Apogee altitude
359.812 km
Perigee altitude
357.19 km
Semi-major axis
6,736.638 km
Eccentricity
0.0001946
Inclination
42.9981°
RAAN
302.5363°
Arg. of periapsis
265.5078°
True anomaly
94.57893°
Mean anomaly
94.5567°
Eccentric anomaly
94.56781°
Mean motion
3.92535 °/min
BSTAR
0.0000018995
Orbital period
91.71 mins
Loading maneuver chart data...
Loading SW <> Apogee altitude chart data...
Loading historical data...
Loading historical data...
Loading historical data...
Loading historical data...
Loading historical data...
Loading historical data...
Loading historical data...

STARLINK-11650 Visibility forecast

Observer location: undefined°, undefined°

Span
Click to sort rows by Start time (UTC) header in descending order
Start Az.
Max El. time (UTC)
Max El. Az.
Max El.
End time (UTC)
End Az.
4 mins2025-05-09 15:13:23.464Z225.91° WSW2025-05-09 15:15:23.464Z155.908° SSE36.955°2025-05-09 15:17:23.464Z84.499° E
4 mins2025-05-09 16:50:23.464Z292.369° WNW2025-05-09 16:51:23.464Z340.439° N37.01°2025-05-09 16:54:23.464Z69.046° E
4 mins2025-05-09 18:26:23.464Z302.158° NW2025-05-09 18:27:23.464Z331.879° NNW35.079°2025-05-09 18:30:23.464Z85.639° E
4 mins2025-05-09 20:02:23.464Z268.542° W2025-05-09 20:04:23.464Z178.733° S33.021°2025-05-09 20:06:23.464Z134.561° SE
|